N9875 LFGA-LFSB

Flight info

Callsign N9875
Flight time N/A
Altitude 16000
Route
Aircraft PC12/L-SDFGRWY/S

Departure

Time N/A
Airport Colmar Houssen airport (LFGA)

Arrival

Time 2026-04-28 17:03
Airport EuroAirport Basel–Mulhouse–Freiburg (LFSB)
Time Latitude Longitude Altitude Speed Heading
2026-04-28 16:59 47.69779 7.57977 2218 ft 180 kts 183°
2026-04-28 17:00 47.68558 7.57850 2056 ft 173 kts 186°
2026-04-28 17:00 47.67351 7.57645 1916 ft 177 kts 188°
2026-04-28 17:00 47.66121 7.57460 1845 ft 179 kts 184°
2026-04-28 17:00 47.64888 7.57314 1778 ft 176 kts 186°
2026-04-28 17:01 47.63706 7.57233 1838 ft 162 kts 178°
2026-04-28 17:01 47.62743 7.57426 1966 ft 120 kts 171°
2026-04-28 17:01 47.62013 7.57640 2033 ft 100 kts 169°
2026-04-28 17:01 47.61334 7.57824 1972 ft 96 kts 172°
2026-04-28 17:02 47.60659 7.57784 1686 ft 100 kts 195°
2026-04-28 17:02 47.60247 7.57490 1523 ft 100 kts 215°
2026-04-28 17:02 47.59639 7.56474 1305 ft 93 kts 241°
2026-04-28 17:02 47.59404 7.55577 1171 ft 92 kts 255°
2026-04-28 17:03 47.59130 7.53831 905 ft 78 kts 255°
2026-04-28 17:03 47.59022 7.53149 888 ft 52 kts 259°
2026-04-28 17:03 47.58985 7.52900 887 ft 7 kts 254°
2026-04-28 17:04 47.58925 7.52577 890 ft 10 kts 258°
2026-04-28 17:04 47.58913 7.52409 891 ft 12 kts 263°
2026-04-28 17:05 47.58856 7.52098 893 ft 22 kts 255°
2026-04-28 17:05 47.58816 7.51856 890 ft 28 kts 255°
2026-04-28 17:05 47.58884 7.51683 886 ft 22 kts 336°
2026-04-28 17:06 47.59150 7.51975 887 ft 31 kts 44°
2026-04-28 17:06 47.59295 7.52243 884 ft 36 kts 67°
2026-04-28 17:06 47.59516 7.52819 891 ft 24 kts 358°
2026-04-28 17:07 47.59696 7.52715 888 ft 31 kts 331°
2026-04-28 17:07 47.59912 7.52567 887 ft 36 kts 336°
2026-04-28 17:07 47.60142 7.52411 886 ft 22 kts 343°
2026-04-28 17:07 47.60250 7.52489 885 ft 19 kts 25°
2026-04-28 17:08 47.60316 7.52499 883 ft 1 kts 324°